User: anonymous   Login
Location: Unspecified
(0.0000°N, 0.0000°E)
Time: 05:22:12
(UTC+00:00)
Language:

Altair - Orbit

View from above orbital plane
View from above orbital plane
View from above satellite
View from above satellite

Ground track
Ground track

The orbit data is extracted from the following two-line orbital elements,

1    50U 60009B   17083.65338257 -.00000081 +00000-0 +55902-4 0  9993
2    50 047.2301 186.0474 0113122 046.6799 314.3356 12.20099842526055
Epoch (UTC): 24 March 2017 15:40:52
Eccentricity: 0.0113122
inclination: 47.2301°
perigee height: 1502 km
apogee height: 1682 km
right ascension of ascending node: 186.0474°
argument of perigee: 46.6799°
revolutions per day: 12.20099842
mean anomaly at epoch: 314.3356°
orbit number at epoch: 52605

The dashed part of the orbit path shows where the satellite is in the earth's shadow,  

DLR